Location: Brachstadt
(48.6975°N, 10.6755°E)
Time: 23:25:51
(UTC+00:00)

Cosmos 2278 Rocket - Pass Details

Date: 18 September 2020
Orbit: 841 x 845 km, 71.0° (Epoch: 31 October)

Event Time Altitude Azimuth Distance (km) Brightness Sun altitude
Exits shadow 21:21:53 23° 27° (NNE) 1,727 4.0 -34.6°
Drops below altitude 10° 21:23:54 10° 28° (NNE) 2,470 4.9 -34.8°
Sets 21:26:22 0° 29° (NNE) 3,409 5.7 -35.0°
